Tracking 35280 objects as of 7-Sep-2026
HD Live streaming from Space Station
objects crossing your sky now

STARLINK-31075

Track STARLINK-31075 now!
10-day predictions
STARLINK-31075 is classified as:


NORAD ID: 58594
Int'l Code: 2023-200F
Launch date: December 19, 2023
Source: United States (US)
Launch site: AIR FORCE EASTERN TEST RANGE (AFETR)
Your satellite tracking list
Your tracking list is empty




NASA's NSSDC Master Catalog

Two Line Element Set (TLE):
1 58594U 23200F   26250.38841944  .00002231  00000-0  90579-4 0  9996
2 58594  43.0029 222.3421 0001132 261.8261  98.2462 15.27583188151400
Source of the keplerian elements: AFSPC